Williamsburg, VA

1:35 PM EDT on August 19, 2017 (GMT -0400)
Williamsburg-jamestown

Weather History for KJGG - March, 2013

Change the Weather History Date:

Thursday, March 7, 2013

  Actual Average Record
Temperature  
Mean Temperature 47 °F -  
Max Temperature 55 °F 57 °F 82 °F (1956)
Min Temperature 39 °F 34 °F 13 °F (1960)
Degree Days  
Heating Degree Days 18    
Moisture  
Dew Point 29 °F    
Average Humidity 56    
Maximum Humidity 87    
Minimum Humidity 36    
Precipitation  
Precipitation 0.00 in - - ()
Sea Level Pressure  
Sea Level Pressure 30.06 in    
Wind  
Wind Speed 14 mph (NNW)    
Max Wind Speed 23 mph    
Max Gust Speed 33 mph    
Visibility 10 miles    
Events      
Averages and records for this station are not official NWS values.
T = Trace of Precipitation, MM = Missing Value Source: NWS Daily Summary

Daily Weather History Graph

Daily Weather History Graph

Search for Another Location

Airport or City:

Trip Planner

Search our weather history database for the weather conditions in past years. The results will help you decide how hot, cold, wet, or windy it might be!

Date:

Astronomy

Mar. 07, 2013 Rise Set
Actual Time 6:29 AM EST 6:06 PM EST
Civil Twilight 6:03 AM EST 6:32 PM EST
Nautical Twilight 5:33 AM EST 7:03 PM EST
Astronomical Twilight 5:02 AM EST 7:33 PM EST
Moon 3:22 AM EST (3/7) 1:56 PM EST (3/7)
Length of Visible Light 12h 29m
Length of Day
11h 37m
Waning Crescent, 20% of the Moon is Illuminated
Mar 7
Waning Crescent
Mar 11
New
Mar 19
First Quarter
Mar 27
Full
Apr 3
Last Quarter

Hourly Weather History & Observations

Time (EST) Temp. Windchill Dew Point Humidity Pressure Visibility Wind Dir Wind Speed Gust Speed Precip Events Conditions
12:15 AM 39.2 °F 30.8 °F 35.6 °F 87% 29.92 in 10.0 mi NNW 15.0 mph 27.6 mph N/A   Overcast
12:35 AM 39.2 °F 30.5 °F 33.8 °F 81% 29.92 in 10.0 mi NNW 16.1 mph 29.9 mph N/A   Overcast
12:55 AM 39.2 °F 29.8 °F 33.8 °F 81% 29.93 in 10.0 mi NNW 18.4 mph 29.9 mph N/A   Overcast
1:15 AM 41.0 °F 32.8 °F 33.8 °F 76% 29.93 in 10.0 mi North 16.1 mph 27.6 mph N/A   Overcast
1:35 AM 41.0 °F 33.1 °F 33.8 °F 76% 29.94 in 10.0 mi North 15.0 mph 21.9 mph N/A   Overcast
1:55 AM 41.0 °F 33.5 °F 32.0 °F 70% 29.94 in 10.0 mi NNW 13.8 mph 24.2 mph N/A   Overcast
2:15 AM 41.0 °F 33.5 °F 32.0 °F 70% 29.94 in 10.0 mi North 13.8 mph 23.0 mph N/A   Overcast
2:35 AM 41.0 °F 34.7 °F 32.0 °F 70% 29.94 in 10.0 mi North 10.4 mph 21.9 mph N/A   Overcast
2:55 AM 41.0 °F 33.9 °F 30.2 °F 65% 29.95 in 10.0 mi NNW 12.7 mph 19.6 mph N/A   Overcast
3:15 AM 39.2 °F 32.5 °F 30.2 °F 70% 29.95 in 10.0 mi North 10.4 mph 23.0 mph N/A   Mostly Cloudy
3:35 AM 39.2 °F 31.2 °F 30.2 °F 70% 29.96 in 10.0 mi North 13.8 mph 20.7 mph N/A   Clear
3:55 AM 39.2 °F 31.2 °F 30.2 °F 70% 29.98 in 10.0 mi North 13.8 mph 19.6 mph N/A   Scattered Clouds
4:15 AM 39.2 °F 32.5 °F 32.0 °F 75% 29.99 in 10.0 mi NNW 10.4 mph - N/A   Overcast
4:35 AM 41.0 °F 34.7 °F 32.0 °F 70% 30.00 in 10.0 mi NNW 10.4 mph - N/A   Overcast
4:55 AM 39.2 °F 32.0 °F 32.0 °F 75% 30.00 in 10.0 mi NNW 11.5 mph 17.3 mph N/A   Overcast
5:15 AM 39.2 °F 31.6 °F 32.0 °F 75% 30.00 in 10.0 mi NNW 12.7 mph 18.4 mph N/A   Mostly Cloudy
5:35 AM 39.2 °F 32.0 °F 30.2 °F 70% 30.01 in 10.0 mi NNW 11.5 mph - N/A   Scattered Clouds
5:55 AM 39.2 °F 31.6 °F 30.2 °F 70% 30.02 in 10.0 mi NNW 12.7 mph 18.4 mph N/A   Clear
6:15 AM 39.2 °F 31.6 °F 30.2 °F 70% 30.03 in 10.0 mi NNW 12.7 mph 17.3 mph N/A   Scattered Clouds
6:35 AM 39.2 °F 33.0 °F 30.2 °F 70% 30.03 in 10.0 mi NNW 9.2 mph 20.7 mph N/A   Scattered Clouds
6:55 AM 39.2 °F 32.5 °F 30.2 °F 70% 30.04 in 10.0 mi NNW 10.4 mph 16.1 mph N/A   Clear
7:15 AM 39.2 °F 31.6 °F 30.2 °F 70% 30.05 in 10.0 mi NNW 12.7 mph 18.4 mph N/A   Clear
7:35 AM 39.2 °F 32.5 °F 30.2 °F 70% 30.06 in 10.0 mi North 10.4 mph 21.9 mph N/A   Clear
7:55 AM 39.2 °F 31.2 °F 30.2 °F 70% 30.06 in 10.0 mi North 13.8 mph 21.9 mph N/A   Clear
8:15 AM 41.0 °F 34.3 °F 30.2 °F 65% 30.07 in 10.0 mi NNW 11.5 mph 20.7 mph N/A   Clear
8:35 AM 42.8 °F 35.4 °F 30.2 °F 61% 30.07 in 10.0 mi NNW 15.0 mph 21.9 mph N/A   Clear
8:55 AM 44.6 °F 40.7 °F 30.2 °F 57% 30.08 in 10.0 mi North 6.9 mph 20.7 mph N/A   Clear
9:15 AM 44.6 °F 37.2 °F 30.2 °F 57% 30.08 in 10.0 mi North 17.3 mph 26.5 mph N/A   Clear
9:35 AM 46.4 °F 38.3 °F 30.2 °F 53% 30.08 in 10.0 mi NNW 23.0 mph 29.9 mph N/A   Clear
9:55 AM 46.4 °F 39.5 °F 30.2 °F 53% 30.09 in 10.0 mi North 17.3 mph 29.9 mph N/A   Clear
10:15 AM 48.2 °F - 30.2 °F 50% 30.09 in 10.0 mi NNW 19.6 mph 26.5 mph N/A   Clear
10:35 AM 48.2 °F - 28.4 °F 46% 30.09 in 10.0 mi North 17.3 mph 27.6 mph N/A   Clear
10:55 AM 48.2 °F - 28.4 °F 46% 30.09 in 10.0 mi NNW 20.7 mph 33.4 mph N/A   Scattered Clouds
11:15 AM 50.0 °F - 28.4 °F 43% 30.09 in 10.0 mi North 17.3 mph 28.8 mph N/A   Scattered Clouds
11:35 AM 51.8 °F - 28.4 °F 41% 30.09 in 10.0 mi NNW 20.7 mph 27.6 mph N/A   Clear
11:55 AM 51.8 °F - 30.2 °F 44% 30.09 in 10.0 mi North 16.1 mph 26.5 mph N/A   Scattered Clouds
12:15 PM 51.8 °F - 30.2 °F 44% 30.08 in 10.0 mi NW 21.9 mph 28.8 mph N/A   Scattered Clouds
12:35 PM 53.6 °F - 30.2 °F 41% 30.07 in 10.0 mi NW 18.4 mph 31.1 mph N/A   Scattered Clouds
12:55 PM 53.6 °F - 28.4 °F 38% 30.06 in 10.0 mi NW 16.1 mph 29.9 mph N/A   Scattered Clouds
1:15 PM 51.8 °F - 28.4 °F 41% 30.06 in 10.0 mi NNW 16.1 mph 25.3 mph N/A   Scattered Clouds
1:35 PM 53.6 °F - 28.4 °F 38% 30.06 in 10.0 mi NW 17.3 mph 27.6 mph N/A   Scattered Clouds
1:55 PM 53.6 °F - 28.4 °F 38% 30.05 in 10.0 mi NW 23.0 mph 27.6 mph N/A   Clear
2:15 PM 53.6 °F - 28.4 °F 38% 30.05 in 10.0 mi NW 17.3 mph 29.9 mph N/A   Clear
2:35 PM 53.6 °F - 28.4 °F 38% 30.05 in 10.0 mi NNW 12.7 mph 29.9 mph N/A   Scattered Clouds
2:55 PM 53.6 °F - 28.4 °F 38% 30.05 in 10.0 mi NNW 23.0 mph 29.9 mph N/A   Scattered Clouds
3:15 PM 55.4 °F - 28.4 °F 36% 30.06 in 10.0 mi NNW 15.0 mph 25.3 mph N/A   Scattered Clouds
3:35 PM 51.8 °F - 28.4 °F 41% 30.06 in 10.0 mi NNW 15.0 mph 26.5 mph N/A   Scattered Clouds
3:55 PM 53.6 °F - 28.4 °F 38% 30.06 in 10.0 mi NW 20.7 mph 28.8 mph N/A   Scattered Clouds
4:15 PM 51.8 °F - 26.6 °F 38% 30.07 in 10.0 mi NNW 16.1 mph 28.8 mph N/A   Scattered Clouds
4:35 PM 51.8 °F - 26.6 °F 38% 30.08 in 10.0 mi North 16.1 mph 26.5 mph N/A   Clear
4:55 PM 50.0 °F - 26.6 °F 40% 30.08 in 10.0 mi NW 17.3 mph 25.3 mph N/A   Scattered Clouds
5:15 PM 48.2 °F - 26.6 °F 43% 30.09 in 10.0 mi NW 18.4 mph 27.6 mph N/A   Mostly Cloudy
5:35 PM 48.2 °F - 26.6 °F 43% 30.10 in 10.0 mi NNW 17.3 mph 25.3 mph N/A   Scattered Clouds
5:55 PM 48.2 °F - 26.6 °F 43% 30.11 in 10.0 mi NNW 11.5 mph 20.7 mph N/A   Mostly Cloudy
6:15 PM 46.4 °F 41.9 °F 26.6 °F 46% 30.12 in 10.0 mi NW 9.2 mph - N/A   Mostly Cloudy
6:35 PM 46.4 °F 42.4 °F 26.6 °F 46% 30.13 in 10.0 mi NW 8.1 mph - N/A   Overcast
6:55 PM 46.4 °F 41.9 °F 26.6 °F 46% 30.13 in 10.0 mi NW 9.2 mph 17.3 mph N/A   Mostly Cloudy
8:35 PM 44.6 °F 39.2 °F 26.6 °F 49% 30.14 in 10.0 mi NW 10.4 mph 16.1 mph N/A   Overcast
8:55 PM 44.6 °F 38.4 °F 26.6 °F 49% 30.15 in 10.0 mi NW 12.7 mph 16.1 mph N/A   Mostly Cloudy
9:15 PM 44.6 °F 38.8 °F 26.6 °F 49% 30.15 in 10.0 mi NW 11.5 mph 17.3 mph N/A   Overcast
9:35 PM 44.6 °F 39.2 °F 26.6 °F 49% 30.15 in 10.0 mi NW 10.4 mph 19.6 mph N/A   Overcast
9:55 PM 42.8 °F 36.6 °F 26.6 °F 53% 30.15 in 10.0 mi NW 11.5 mph 18.4 mph N/A   Mostly Cloudy
10:15 PM 42.8 °F 38.0 °F 26.6 °F 53% 30.15 in 10.0 mi NW 8.1 mph - N/A   Mostly Cloudy
10:35 PM 42.8 °F 37.5 °F 26.6 °F 53% 30.15 in 10.0 mi NW 9.2 mph - N/A   Scattered Clouds
10:55 PM 42.8 °F 37.5 °F 26.6 °F 53% 30.15 in 10.0 mi NW 9.2 mph 18.4 mph N/A   Clear
11:15 PM 42.8 °F 36.6 °F 26.6 °F 53% 30.15 in 10.0 mi NW 11.5 mph 16.1 mph N/A   Scattered Clouds
11:35 PM 41.0 °F 33.9 °F 26.6 °F 57% 30.15 in 10.0 mi NW 12.7 mph 17.3 mph N/A   Scattered Clouds
11:55 PM 41.0 °F 34.3 °F 26.6 °F 57% 30.15 in 10.0 mi NW 11.5 mph 20.7 mph N/A   Clear